Dewpoint
22 22 23 21 22 25 25 23 20 21 21 22 24 24 24 24 25 28 31 42 45 46 48 49 48 46 44 43 43 44 44 44 44 44 44 42 39 39 40 39 37 33 32 32
22 26 26 24 24 25 25 24 24 23 22 25 25 27 27 28 29 36 39 41 44 43 45 47 46 45 44 44 44 44 43 43 43 43 39 38 38 37 35 32 32 34 34 32
21 25 25 22 24 24 24 24 23 21 23 25 26 28 31 34 37 40 42 44 45 46 45 45 44 44 44 43 41 40 39 38 37 36 35 34 32 34 37 38 37 35 32 31
20 23 19 22 27 26 25 24 24 23 24 26 30 35 35 36 38 37 38 39 40 40 39 37 37 35 35 36 36 34 33 32 31 31 35 38 38 38 39 36 32 29 28 28
20 21 21 21 24 23 22 17 25 24 29 32 35 35 33 31 31 31 31 31 31 31 32 32 31 31 31 31 30 31 35 36 37 37 37 37 38 37 32 29 28 27 27 28
24 19 17 21 25 23 21 17 26 29 31 32 33 23 30 30 29 28 28 28 28 27 27 27 28 28 27 28 31 34 37 37 37 38 38 34 31 29 28 27 27 27 27 27
24 23 25 29 25 22 18 19 26 30 32 33 28 28 31 27 26 26 26 26 26 26 26 26 26 26 28 30 33 35 36 36 33 30 28 28 26 26 26 26 26 26 26 27
26 25 24 28 24 20 22 28 31 32 33 33 32 30 28 26 25 25 25 25 26 27 27 27 28 28 29 29 29 28 27 26 25 25 26 26 25 25 25 26 25 25 25 25
29 28 32 31 27 29 30 30 34 33 36 33 31 29 28 25 25 25 26 28 29 28 28 29 28 29 28 28 27 27 26 25 26 26 27 27 27 27 27 26 26 26 26 26
30 32 34 37 38 37 37 35 37 38 34 32 30 29 27 26 26 26 28 28 28 29 26 25 28 29 29 28 27 27 27 27 25 24 25 25 25 26 25 25 25 26 26 26
32 35 38 38 38 36 36 37 37 34 33 32 30 28 27 27 28 29 29 29 26 24 25 28 28 28 28 27 25 24 23 24 24 25 25 24 24 25 25 26 26 26 26 26
30 32 31 33 37 36 36 35 35 33 32 31 30 28 28 30 30 29 25 24 24 25 28 27 23 23 24 25 22 20 21 23 23 22 22 21 21 20 21 22 23 24 24 24
33 38 37 36 35 35 34 33 33 32 31 29 29 30 30 30 27 26 25 24 26 28 25 20 19 20 22 22 22 22 21 20 20 19 19 20 21 21 19 20 21 22 21 21
37 36 35 35 34 33 32 31 31 30 30 31 31 30 27 26 25 23 24 27 27 23 20 18 19 21 21 19 20 19 17 18 18 19 20 19 19 19 20 20 18 17 19 18
35 35 35 33 32 31 31 31 30 30 30 29 28 27 25 22 21 24 26 21 19 18 18 19 19 19 16 15 14 16 16 17 18 18 18 17 17 15 16 17 16 17 15 15
33 33 32 31 31 31 30 29 29 28 28 28 26 22 21 23 24 25 24 22 17 17 18 17 14 12 13 15 15 15 15 16 16 15 14 15 13 14 14 13 14 13 13 12
32 32 31 30 30 29 28 28 28 28 28 26 22 21 23 22 21 20 19 18 19 19 16 14 11 11 11 13 14 13 13 13 11 12 11 10 10 11 10 11 9 9 9 9
35 34 33 31 29 27 27 28 28 28 26 23 21 21 22 21 20 20 18 17 18 17 14 12 10 9 9 11 11 10 11 9 8 9 8 7 7 7 6 8 5 5 6 6
34 33 32 30 29 29 29 28 27 23 22 20 18 19 21 21 19 18 15 13 14 15 13 10 10 7 6 10 7 9 8 4 5 5 4 4 4 3 2 5 3 3 4 3
33 33 32 31 30 29 27 24 21 20 20 18 19 18 19 19 17 14 13 12 13 15 13 10 9 7 6 7 7 7 5 2 2 3 2 1 -0 -2 -1 2 0 -0 1 1
31 30 29 28 26 25 24 21 18 17 18 18 16 16 17 17 15 14 14 13 12 16 13 11 10 9 7 8 8 6 4 1 -1 -0 0 -1 -3 -4 -5 -3 -3 -3 -2 -1
27 26 26 25 24 21 18 17 18 18 16 15 15 16 16 16 15 13 13 13 13 15 13 13 11 7 7 7 7 4 4 1 -3 -3 -1 -2 -5 -6 -7 -5 -5 -6 -4 -3
27 26 25 23 20 17 16 16 16 15 14 14 14 15 15 15 14 13 13 15 13 13 14 11 9 8 5 4 3 2 2 0 -4 -4 -3 -4 -6 -7 -8 -8 -8 -7 -7 -6
26 25 21 19 17 14 13 14 14 14 15 15 15 15 15 13 14 15 14 12 10 10 9 8 7 3 1 3 1 1 -0 -1 -5 -5 -4 -5 -8 -9 -10 -10 -10 -9 -9 -8
24 21 17 16 16 16 16 15 15 15 15 15 16 16 15 13 11 12 10 10 10 8 7 5 5 1 -3 0 0 0 -1 -2 -4 -5 -5 -7 -9 -12 -12 -12 -12 -11 -10 -10
20 20 19 19 18 18 18 17 16 14 10 10 12 12 11 11 9 7 7 7 7 6 5 4 3 2 -0 -1 -1 -1 -2 -1 -2 -4 -6 -8 -11 -13 -14 -13 -13 -13 -12 -11
19 19 18 17 17 16 16 16 15 13 10 8 9 11 11 9 7 4 2 2 3 3 2 1 1 0 -0 -2 -2 -2 -2 -3 -5 -6 -8 -10 -13 -14 -15 -15 -15 -14 -13 -12
Wind_Speed
11 8 11 9 10 13 15 12 13 17 14 17 9 10 12 10 11 9 12 13 16 12 9 9 12 12 12 13 16 17 18 18 16 14 13 16 12 10 7 8 12 11 8 10
10 2 4 6 12 10 9 5 11 11 13 12 4 2 5 5 3 6 7 4 6 6 7 8 10 12 15 16 16 16 17 17 16 14 13 14 12 13 9 5 2 1 6 11
13 1 3 11 18 18 14 11 14 19 20 9 6 5 3 6 7 10 11 11 9 7 7 10 11 12 15 16 18 19 18 17 16 16 16 10 10 8 4 3 6 10 14 10
9 5 13 10 2 9 20 15 11 9 5 10 11 8 8 7 7 11 11 12 12 11 13 14 17 19 20 19 20 21 20 19 17 17 13 8 6 3 3 6 11 11 13 13
9 12 6 5 6 10 12 18 11 9 11 16 15 8 7 9 11 10 10 10 12 14 16 17 18 18 22 21 21 22 19 17 13 11 7 8 10 9 7 8 9 11 10 12
6 7 14 10 9 7 5 18 12 15 22 23 12 12 6 6 9 11 12 12 16 16 18 20 16 19 24 22 20 17 12 11 8 7 6 6 4 5 5 5 9 10 13 13
10 9 8 11 4 9 10 15 17 22 24 21 11 3 13 14 13 13 14 16 16 18 20 18 16 20 21 17 14 10 8 7 4 4 3 3 4 3 7 10 11 14 15 17
5 7 15 12 9 14 11 2 14 16 17 13 13 16 16 16 16 17 18 18 18 22 20 18 17 20 17 15 9 10 10 7 6 7 8 8 9 11 12 13 15 18 18 20
17 12 3 14 6 7 7 8 13 20 13 18 20 13 15 18 19 18 19 19 17 21 21 18 17 16 16 10 8 10 11 11 11 11 12 11 11 13 14 15 16 16 15 17
3 8 11 9 6 4 5 9 12 12 22 20 20 20 20 19 19 19 18 19 18 20 20 18 16 18 14 13 13 14 14 13 12 13 14 13 13 12 13 15 16 14 16 17
7 8 9 10 8 8 10 12 16 15 15 20 24 19 20 20 19 18 18 17 17 19 18 17 15 17 15 14 14 13 12 11 12 10 11 11 10 11 13 11 12 17 17 19
23 17 16 11 17 15 18 15 15 23 18 14 19 23 22 19 17 17 18 17 18 17 18 14 15 15 14 13 13 12 11 10 10 10 11 12 13 15 11 15 17 18 20 20
8 13 3 14 15 9 18 15 14 16 20 24 19 22 22 21 15 19 17 17 16 17 16 14 14 14 12 11 11 12 11 10 10 12 12 13 14 15 21 17 16 17 20 22
16 18 9 13 11 15 21 21 21 21 19 20 22 21 23 21 19 18 17 15 16 16 14 13 13 13 10 10 10 10 10 11 11 11 12 12 12 14 14 17 22 23 20 25
5 6 9 21 21 20 20 24 24 22 22 22 20 22 22 22 20 17 15 16 15 14 12 11 11 11 9 10 10 10 10 10 10 11 10 11 11 12 13 14 15 16 21 21
14 16 18 24 20 19 20 19 27 22 21 21 21 20 19 20 18 16 13 9 11 12 11 11 10 9 9 10 9 9 9 11 10 9 10 10 11 12 13 14 14 16 16 19
23 14 19 19 20 18 17 17 22 23 23 23 22 21 21 20 18 16 14 13 14 13 10 9 8 8 9 10 8 8 7 7 10 8 10 11 11 11 12 12 13 14 15 17
5 5 13 28 26 23 19 17 17 17 21 22 21 20 19 16 16 15 13 12 13 12 10 9 8 8 9 10 8 8 7 8 8 8 9 10 11 10 12 11 12 14 15 17
16 20 21 21 21 21 20 18 17 17 18 20 21 18 15 16 15 14 12 11 10 8 6 7 7 8 8 9 8 7 7 9 8 7 9 10 10 12 13 11 13 14 14 16
21 20 22 23 22 22 20 17 18 16 15 19 20 18 16 14 15 14 10 10 7 6 7 5 5 6 6 6 7 6 7 8 8 8 9 10 12 14 13 11 14 14 14 14
20 21 23 22 21 18 18 16 19 18 15 15 18 17 16 14 13 13 9 7 5 5 6 5 4 3 3 4 4 5 4 6 8 9 8 10 12 14 15 14 15 14 14 15
18 20 21 22 22 19 15 14 16 17 16 16 15 16 16 13 11 8 5 5 5 5 4 4 2 2 3 4 3 3 3 4 7 9 8 7 10 14 16 15 16 15 14 15
18 19 19 19 19 18 15 14 14 15 16 15 14 13 10 9 8 7 5 4 4 4 4 2 1 1 3 2 2 2 3 3 6 8 7 6 10 13 15 15 15 15 15 15
19 18 18 17 18 18 18 13 13 13 13 11 10 9 11 9 5 4 6 6 4 4 3 1 1 1 3 3 3 4 5 5 5 7 5 6 9 13 15 16 16 14 14 15
18 17 17 16 15 13 14 13 13 11 11 9 7 5 3 3 1 5 6 4 3 2 0 1 1 2 2 3 4 7 8 7 6 7 6 7 11 14 15 15 15 15 15 15
18 16 16 17 14 12 11 10 10 8 7 6 4 3 4 6 9 8 5 4 2 2 3 3 2 3 4 5 6 9 8 8 8 8 6 7 11 14 15 15 15 15 15 15
18 16 16 16 13 12 11 10 8 6 5 4 2 0 4 6 6 5 3 2 2 4 5 4 4 5 5 6 8 8 6 8 8 9 6 8 11 13 15 15 15 15 15 15
Wind_Direction
219 215 195 230 226 189 202 210 225 256 241 262 281 289 281 281 284 259 250 233 232 223 184 170 146 139 135 130 129 132 131 126 122 119 122 134 121 123 133 177 195 200 243 245
214 198 210 212 227 202 212 213 243 247 254 248 255 298 327 335 117 84 62 339 276 237 180 156 153 136 127 127 123 121 121 113 119 126 136 123 124 152 178 141 2 5 279 262
217 164 116 243 233 219 219 203 210 234 237 186 191 163 84 42 77 80 66 62 67 71 97 121 128 125 120 111 108 105 105 107 108 111 110 108 111 117 63 295 273 267 266 259
204 133 227 240 261 265 239 245 227 258 237 198 157 116 73 42 87 79 71 70 72 82 89 88 98 99 100 101 100 99 99 99 101 104 104 105 71 23 298 275 265 269 272 273
191 209 284 278 213 201 211 259 218 217 168 149 144 122 62 46 63 79 82 81 84 86 90 89 95 101 99 97 100 100 98 96 95 95 66 14 328 290 264 270 283 279 280 290
163 212 233 246 237 170 115 262 200 174 169 163 164 174 178 119 97 92 89 88 92 89 88 93 95 102 102 104 100 97 94 98 92 38 317 277 266 288 293 286 288 299 300 290
185 222 263 248 193 138 202 253 184 181 175 170 180 168 135 123 102 97 96 95 92 89 92 95 97 99 97 95 88 92 92 64 71 74 42 353 322 308 301 299 298 296 292 287
154 221 251 173 135 198 221 185 172 169 172 160 130 124 123 116 111 105 100 94 92 91 88 86 88 94 91 82 84 79 76 64 39 24 10 355 336 324 320 313 309 307 303 300
199 224 207 190 204 220 192 174 174 165 165 153 140 142 134 128 119 113 110 100 95 95 87 68 68 77 76 50 57 60 58 47 35 25 16 11 357 343 336 332 325 315 305 301
181 222 216 229 238 219 180 172 159 149 152 151 149 143 134 128 124 118 113 110 105 96 91 81 70 67 65 58 64 68 58 44 30 20 5 360 352 343 332 325 319 311 308 306
222 242 281 245 219 182 135 126 122 115 136 142 135 136 135 131 125 120 114 106 103 103 96 84 76 65 52 49 53 56 48 36 22 12 3 348 342 331 323 314 305 314 315 313
238 201 200 212 171 153 143 143 138 134 124 122 136 137 133 125 121 117 111 107 100 98 97 88 76 64 49 44 48 48 44 29 17 5 356 350 341 334 334 327 327 321 318 318
230 151 98 132 129 129 133 133 123 124 129 130 126 127 123 119 110 107 102 99 98 98 96 89 76 62 44 39 44 46 39 22 11 5 357 350 345 341 335 334 329 337 338 341
124 112 113 160 163 133 124 117 107 103 106 115 117 111 112 110 105 102 100 101 98 97 91 86 74 61 43 33 40 39 34 25 13 359 351 348 346 340 337 340 338 336 343 344
64 32 122 114 112 116 119 121 114 115 116 112 111 115 115 114 109 106 103 101 99 93 85 78 70 54 33 29 36 33 28 18 2 351 357 359 352 347 341 339 336 336 337 345
84 94 106 113 121 124 124 125 122 125 121 119 114 111 109 107 107 104 108 117 113 97 87 82 68 44 39 33 34 30 21 15 10 6 358 360 354 348 347 346 340 346 342 340
120 118 115 128 135 138 139 136 132 132 127 123 121 118 114 112 108 108 103 99 102 99 90 74 58 48 41 31 33 29 18 12 11 10 7 2 351 348 346 341 345 337 333 334
68 144 162 148 140 130 118 111 110 118 123 124 122 123 125 128 128 125 120 114 106 96 79 67 55 52 46 32 34 27 23 16 6 9 0 356 348 350 344 339 342 334 332 334
108 114 116 114 118 113 113 116 118 119 122 123 124 124 120 120 123 127 127 117 110 106 82 73 63 57 48 41 36 34 32 22 13 7 0 355 356 350 342 334 337 331 330 332
105 104 107 109 110 119 121 116 116 116 114 117 117 119 121 124 128 129 122 101 91 105 112 89 76 62 47 43 40 38 39 27 14 0 0 0 354 346 338 333 337 329 326 327
115 113 111 111 107 104 106 123 126 124 124 121 129 132 132 133 136 136 129 120 112 131 117 110 87 71 51 26 38 31 33 14 5 355 350 355 351 348 341 332 331 327 323 323
113 111 109 109 109 108 109 112 114 118 122 121 120 124 129 133 130 108 89 129 132 142 130 120 103 72 29 11 11 360 344 359 357 351 341 344 347 346 340 330 327 324 318 317
102 105 106 110 115 112 102 103 108 117 121 126 131 136 134 141 144 141 157 140 128 146 139 129 60 64 11 353 332 310 305 317 335 333 319 324 337 338 335 330 323 319 318 316
99 99 97 101 104 106 110 108 103 103 107 111 116 123 130 129 91 82 111 126 122 132 128 124 76 25 353 316 317 301 288 272 300 314 298 318 332 334 333 329 325 318 312 311
92 97 99 99 97 102 111 112 105 103 98 92 84 74 112 118 172 168 130 115 110 105 299 285 276 321 336 324 289 306 281 265 283 305 292 314 327 330 326 322 319 315 309 305
87 86 80 76 84 87 95 102 106 104 107 98 71 75 99 113 118 118 97 73 58 354 305 281 288 295 299 307 303 301 290 278 285 307 282 309 325 326 325 321 318 314 308 304
76 79 81 74 65 69 73 82 102 99 92 91 89 165 171 141 126 112 97 56 356 325 309 295 285 301 299 304 304 309 302 316 292 290 274 311 323 322 320 316 312 307 305 304